GFSGL_sfc_dewp_024.txt.gz
Dewpoint
58 60 62 62 61 62 63 62 61 62 61 60 60 61 61 62 63 64 63 61 61 62 63 62 63 63 62 61 65 63 61 62 59 60 61 61 61 61 62 63 62 62 61
57 58 61 61 60 63 62 62 62 61 60 59 59 60 61 61 62 61 61 60 61 61 62 62 62 61 63 63 64 64 63 62 60 58 60 61 61 61 62 61 61 61 61
55 57 61 61 62 62 62 63 61 60 59 59 59 60 61 61 61 61 60 60 61 62 62 62 62 62 61 62 62 65 64 62 61 60 59 61 61 61 60 61 61 61 58
53 57 60 61 61 61 62 62 61 60 59 59 59 60 61 60 60 60 60 61 61 62 62 62 62 61 61 62 62 63 63 62 61 60 59 59 59 60 60 58 58 59 56
52 56 60 61 61 61 61 61 61 61 60 59 61 61 61 60 59 60 61 61 61 62 63 62 63 61 60 61 63 64 62 60 60 59 58 58 58 58 57 59 59 56 59
53 55 58 59 59 61 61 61 61 61 61 60 61 61 61 59 51 53 58 61 61 62 62 63 63 60 58 54 55 56 60 60 59 58 58 57 58 58 59 58 57 58 56
52 54 57 58 58 60 59 59 61 62 62 61 61 61 61 61 50 51 53 61 62 62 63 62 61 62 61 60 53 53 53 53 56 60 59 59 58 59 58 58 59 57 54
51 53 56 56 58 59 60 61 62 63 63 62 62 61 61 59 49 49 53 61 62 63 62 64 63 63 60 61 61 59 58 59 61 61 61 61 61 62 61 61 61 61 59
49 51 55 55 57 58 58 62 63 63 60 61 62 61 61 60 46 48 55 61 62 62 63 62 62 61 49 52 60 57 56 54 50 51 52 53 51 52 55 59 57 54 53
48 49 55 55 57 56 58 62 63 63 62 61 61 59 55 58 45 47 56 60 61 61 63 62 51 56 47 50 60 59 57 55 56 59 58 53 55 55 52 62 56 52 53
48 48 53 56 57 59 59 62 62 61 61 62 61 62 61 59 54 47 52 61 60 60 60 59 56 45 46 48 53 62 57 57 56 60 59 58 57 57 58 61 60 55 50
48 48 51 57 56 58 60 61 62 62 62 61 61 61 60 61 54 48 46 53 56 60 60 59 57 44 45 47 52 44 46 51 53 53 53 53 54 55 56 57 58 57 56
48 51 52 56 56 58 59 58 58 62 59 59 58 58 59 60 60 46 46 48 50 63 61 54 44 43 44 44 42 43 45 55 54 53 53 53 53 53 55 54 54 52 51
50 52 52 54 57 57 55 54 52 56 55 53 53 55 57 59 59 59 59 59 50 56 51 56 54 51 44 48 48 49 54 54 53 51 48 48 50 50 48 48 46 45 42
51 52 53 52 56 57 54 52 49 54 50 51 50 50 55 57 57 54 55 57 58 55 57 57 57 57 56 56 53 52 52 52 51 50 49 48 47 46 46 47 45 43 40
52 51 50 48 52 52 55 55 43 46 46 45 45 48 50 45 46 46 47 45 44 46 55 55 54 54 53 53 53 53 53 51 51 50 50 47 46 45 45 46 45 45 42
54 53 49 46 49 48 52 54 53 50 46 43 43 44 44 46 43 43 41 40 40 45 55 50 48 49 50 50 50 51 51 52 52 50 49 48 46 46 44 44 44 44 40
54 45 49 47 46 46 48 50 51 52 51 51 44 46 43 40 38 39 39 43 50 48 48 46 46 46 44 43 45 46 48 50 51 50 49 49 48 46 45 44 44 43 39
52 48 48 47 45 44 46 46 46 46 47 48 50 46 44 39 37 37 39 51 49 49 48 47 48 48 48 46 45 45 47 48 50 51 50 50 49 47 46 44 43 38 37
52 45 45 47 44 45 44 45 44 45 45 44 45 49 52 48 51 49 46 48 46 43 42 42 43 46 47 48 47 47 46 49 51 51 50 50 49 48 46 44 43 41 38
50 50 44 46 45 44 43 44 44 43 44 44 44 44 42 51 49 49 50 51 51 47 46 45 41 39 42 45 46 45 46 47 49 49 49 49 49 48 47 46 44 41 38
49 49 48 45 45 45 43 43 44 43 43 43 44 44 39 50 45 44 46 48 49 50 49 49 46 43 41 40 41 43 43 44 45 47 48 48 48 48 46 45 44 41 37
47 47 48 46 46 44 46 43 43 43 43 43 43 43 48 48 47 44 45 47 49 49 49 48 48 46 45 44 44 41 39 40 43 45 46 46 46 47 46 47 43 41 36
46 47 46 46 45 45 46 47 45 41 43 43 44 43 44 48 49 49 46 47 49 50 50 49 48 47 47 47 46 46 44 42 40 40 46 45 45 44 45 45 43 40 39
45 48 48 48 46 46 47 48 48 46 46 44 44 44 44 44 48 48 48 47 49 50 51 51 50 50 50 49 48 48 46 37 45 41 45 47 46 47 44 45 44 43 39
45 48 49 48 48 48 48 48 49 49 48 48 48 47 47 46 46 49 49 50 49 50 51 51 51 52 51 50 50 45 37 36 45 36 46 47 46 45 44 45 41 40 40

GFSGL_sfc_dewp_030.txt.gz
Dewpoint
61 64 64 64 63 65 65 65 65 64 63 62 63 63 63 63 63 63 64 63 62 62 61 61 61 61 62 63 62 61 61 61 57 59 60 61 61 60 60 62 62 61 60
59 62 64 62 64 65 65 64 64 62 62 62 61 61 61 62 64 62 62 62 62 62 61 61 61 63 61 62 62 61 61 61 59 57 58 59 59 60 60 60 60 61 60
57 61 62 63 64 65 64 65 64 63 61 60 60 59 61 62 62 62 62 62 62 62 61 61 61 62 61 61 61 61 61 61 59 58 57 59 59 60 59 59 59 59 59
55 61 63 64 63 64 65 64 64 61 60 60 61 60 61 61 61 61 61 61 62 62 62 63 62 60 61 61 61 61 61 59 59 58 57 57 58 58 58 56 56 58 57
56 60 62 63 63 63 64 63 63 60 59 60 61 61 61 60 59 62 62 62 63 63 63 63 61 60 58 61 61 61 60 59 58 58 57 57 56 56 54 55 55 55 54
59 60 61 61 61 63 63 64 64 63 62 61 62 61 61 58 51 53 58 63 63 63 62 61 60 58 56 55 56 57 59 59 57 57 57 56 55 54 54 54 54 52 50
56 58 59 60 59 62 62 62 63 64 64 63 62 61 60 60 50 51 53 64 63 63 62 62 62 60 60 59 53 53 53 53 55 58 57 57 55 54 56 56 54 53 51
54 57 57 58 58 60 61 63 64 65 64 64 63 61 60 58 52 46 49 64 63 63 63 63 62 62 60 60 60 59 59 59 59 59 59 58 57 57 57 53 57 57 54
51 57 57 57 59 60 61 64 65 65 64 62 62 62 60 59 46 46 56 63 63 63 63 63 62 59 50 51 59 58 58 58 53 51 51 50 50 51 56 57 58 54 53
50 53 57 57 60 61 63 64 65 65 63 63 62 62 57 59 47 47 54 63 62 61 61 59 52 55 48 51 59 58 57 58 58 58 56 53 52 53 52 59 57 53 52
50 53 58 59 61 63 64 65 65 64 62 61 61 61 61 59 57 48 48 63 62 60 59 58 55 47 49 50 53 58 57 59 56 59 59 57 56 58 60 61 61 58 53
50 53 58 61 57 62 64 65 64 64 62 61 61 61 61 61 54 49 48 53 56 59 58 59 52 45 48 50 54 47 48 55 60 60 59 58 58 59 61 61 60 59 60
51 56 59 59 59 61 64 63 62 64 61 61 61 60 61 60 59 49 48 49 52 59 59 51 43 45 45 48 46 47 49 60 59 59 58 59 59 59 60 58 58 57 57
53 58 59 59 60 60 60 62 61 61 60 59 59 60 59 59 59 60 59 58 52 54 51 52 50 50 51 52 52 53 61 60 59 59 57 56 58 59 58 57 54 53 50
55 57 59 58 60 60 59 58 59 55 56 59 60 60 59 58 59 56 57 60 60 56 58 58 58 56 56 56 57 58 58 59 58 56 55 57 57 57 56 56 53 51 49
56 55 55 56 58 57 56 55 43 44 43 42 44 56 58 52 48 48 49 49 47 48 58 58 58 55 55 54 54 55 57 53 55 57 57 55 54 54 53 53 52 50 49
55 56 53 54 55 56 55 53 54 50 43 43 43 46 50 50 45 44 44 44 45 47 58 57 56 56 54 55 55 55 55 55 58 53 53 52 52 51 48 50 50 50 49
55 47 53 52 55 55 53 54 51 53 52 53 47 49 46 44 44 43 42 47 54 52 57 56 56 57 55 53 53 53 55 55 55 56 54 53 52 50 50 49 49 49 48
53 52 52 51 52 51 55 54 52 51 51 51 51 48 43 41 41 41 44 58 57 56 56 56 57 56 56 55 54 53 53 54 53 55 55 54 53 52 51 49 49 42 44
54 47 48 51 48 50 49 52 53 53 52 49 51 50 50 49 55 55 55 58 57 56 56 56 55 54 52 52 54 54 53 54 55 55 54 54 53 51 50 50 48 48 46
52 52 45 50 47 47 46 48 49 51 53 51 50 49 44 52 53 54 55 55 53 50 48 48 46 46 53 52 49 48 49 52 54 54 54 54 54 52 52 51 51 49 49
50 51 51 48 49 46 46 46 47 47 47 51 51 47 39 48 49 50 53 53 53 53 52 52 48 47 46 49 51 51 48 47 50 51 53 53 53 53 53 52 51 51 49
50 50 51 49 49 46 47 45 45 46 45 45 46 48 47 48 47 47 48 49 52 52 53 52 50 48 46 48 49 50 49 50 51 51 51 51 52 52 52 52 52 50 50
49 51 51 50 48 48 48 47 45 42 44 44 46 48 49 50 50 48 48 49 50 51 50 50 48 48 51 52 50 47 46 49 51 51 52 52 51 49 52 52 51 51 51
50 52 52 53 50 49 50 48 47 44 44 45 45 46 50 50 51 51 51 50 50 50 52 52 52 52 51 52 52 51 45 35 44 42 51 52 52 52 51 51 51 51 43
50 53 52 53 53 52 50 51 49 47 46 45 46 47 48 50 50 51 51 50 49 49 49 51 52 52 52 51 50 46 38 35 39 35 45 48 50 51 50 50 50 46 42

GFSGL_sfc_dewp_033.txt.gz
Dewpoint
59 59 61 61 62 61 61 61 60 60 60 61 62 61 61 61 61 60 60 61 60 59 60 59 59 59 60 60 61 58 58 57 57 58 60 60 59 60 60 61 61 61 60
60 60 61 61 62 61 61 61 58 59 59 59 61 61 61 61 60 60 60 60 61 60 59 59 58 62 60 60 60 59 59 59 58 57 59 58 58 59 60 60 60 61 60
60 61 61 61 61 61 61 61 60 59 59 59 59 60 61 61 60 60 61 60 61 61 61 61 60 61 60 60 60 60 60 60 59 58 57 59 59 60 59 59 59 59 59
59 60 60 60 61 61 61 61 60 60 58 59 61 61 60 59 59 59 59 60 61 61 62 61 61 60 60 60 60 60 60 59 59 58 57 58 58 58 58 56 56 57 55
59 61 60 60 61 61 61 60 60 59 59 61 60 59 59 59 59 59 61 61 61 61 61 61 61 60 60 60 61 60 59 58 57 57 56 56 56 56 55 56 54 54 53
60 60 60 60 60 61 61 60 60 61 61 61 60 59 58 57 50 52 57 61 62 61 59 60 60 58 57 56 56 56 58 58 57 56 55 55 55 54 55 54 53 52 49
59 60 60 60 60 60 61 60 60 60 60 60 59 59 57 55 47 47 51 62 62 61 59 60 60 59 59 57 53 53 53 52 54 56 55 55 54 55 55 54 52 50 50
58 58 58 58 59 60 61 60 59 59 59 60 59 58 57 53 46 46 50 61 60 62 60 60 61 60 59 59 59 58 59 58 58 58 57 56 55 56 54 52 52 51 50
57 57 58 58 58 59 60 61 61 61 59 60 59 57 55 53 47 46 56 61 60 61 61 60 60 59 50 51 59 58 58 57 52 50 50 49 48 49 52 57 51 49 50
56 57 57 58 59 60 61 60 60 59 59 61 59 57 54 54 48 46 53 60 59 59 58 57 51 55 48 50 58 57 57 57 57 57 55 51 52 51 50 57 52 51 51
54 56 58 59 61 61 61 61 61 59 60 59 59 58 57 55 54 46 51 60 59 59 58 56 53 47 47 48 52 57 57 57 55 57 57 55 56 56 57 58 56 54 52
56 56 59 60 61 62 61 61 61 59 59 58 59 58 58 57 51 48 50 55 55 58 57 56 51 46 46 47 54 45 47 54 58 58 55 54 53 55 57 59 59 55 55
55 57 59 60 61 62 61 61 61 60 59 59 58 57 57 57 55 47 49 50 52 57 58 52 45 45 45 47 46 48 52 59 58 57 56 55 55 57 58 56 55 55 54
57 57 58 58 61 62 62 62 61 60 59 59 59 59 58 56 56 57 56 53 49 51 48 49 50 50 50 52 52 54 59 58 58 57 57 57 57 57 55 54 52 51 49
57 56 58 58 58 59 58 58 60 59 59 59 59 59 58 57 58 55 56 57 56 53 53 54 54 54 55 57 57 57 59 58 58 58 56 56 57 58 56 54 51 50 47
56 56 57 58 58 57 51 49 43 43 42 49 51 57 58 52 48 48 49 47 46 47 56 55 54 55 56 57 57 57 57 57 58 57 55 56 56 56 55 53 51 49 47
54 56 55 56 57 57 53 50 48 48 43 44 48 48 49 50 46 46 46 45 45 48 57 56 55 54 55 56 57 57 56 56 57 56 56 55 55 55 52 53 51 49 48
53 49 55 55 56 56 55 53 50 49 49 51 46 48 46 45 45 44 43 46 51 51 57 56 56 54 53 54 54 54 54 55 54 55 55 54 53 53 50 51 51 49 48
53 53 53 53 54 54 54 53 52 51 50 51 51 47 42 42 43 42 43 57 56 56 56 56 56 56 54 53 53 53 53 54 53 54 53 52 52 50 49 49 49 43 44
51 48 50 51 54 54 54 53 51 51 51 50 52 53 48 47 51 51 52 57 57 56 56 56 56 56 56 54 53 53 52 52 52 52 54 52 51 51 49 48 48 47 46
50 49 46 52 50 52 51 53 54 51 50 50 50 52 45 53 54 54 54 56 57 57 56 56 56 55 53 53 53 53 52 52 53 52 52 53 52 50 50 49 48 48 47
51 50 50 49 50 49 49 50 52 53 51 49 50 49 41 55 55 55 56 56 57 56 53 55 54 52 48 50 50 49 49 51 53 53 53 53 53 52 51 50 50 49 48
51 52 50 49 48 46 46 47 49 49 52 52 50 49 48 53 53 53 54 55 56 55 54 53 52 49 48 48 51 49 47 46 47 52 53 54 53 53 52 51 50 50 48
49 51 51 50 49 48 50 47 46 44 47 48 52 49 48 48 49 50 51 52 53 52 52 51 51 51 50 50 49 50 52 51 51 49 50 50 53 50 52 52 51 50 49
55 52 51 51 50 48 48 49 47 45 46 46 47 49 48 48 48 48 48 48 49 51 52 52 52 50 48 48 49 51 44 38 48 46 52 51 50 51 51 52 51 49 41
59 58 54 54 51 50 49 49 48 47 45 46 46 49 49 49 49 50 50 48 48 49 49 50 49 49 49 48 48 44 40 37 39 38 49 51 51 51 51 50 50 46 40

GFSGL_sfc_dewp_036.txt.gz
Dewpoint
59 59 59 60 61 60 59 60 60 59 59 60 61 61 60 60 60 59 59 60 57 57 59 59 58 58 59 58 57 57 57 57 56 58 60 61 60 60 60 60 59 57 57
58 60 60 61 60 60 60 60 59 59 59 60 61 60 61 60 59 59 59 60 60 58 58 58 58 61 59 59 58 56 56 57 58 57 58 59 59 59 58 58 59 60 60
59 60 60 61 59 59 60 59 57 59 58 59 60 60 60 60 59 60 60 60 60 60 59 59 60 60 60 60 59 59 59 59 59 58 56 59 58 59 59 59 58 58 59
60 60 60 59 60 60 60 59 58 59 58 59 60 60 60 59 59 59 59 60 61 60 61 60 60 60 60 60 60 59 59 59 59 57 57 57 58 58 58 56 56 56 54
59 59 59 59 60 60 60 60 59 60 60 61 59 58 58 58 57 58 60 60 61 61 60 60 60 60 59 59 60 60 59 58 58 57 56 56 56 56 55 55 53 53 52
59 59 59 60 60 60 60 59 60 60 61 60 58 58 57 57 49 50 56 61 61 60 59 59 59 58 57 56 56 56 58 58 57 57 56 55 56 55 55 54 53 51 49
59 59 59 60 60 60 60 59 60 60 59 58 57 57 55 54 46 46 51 60 59 58 59 60 60 59 58 58 52 53 53 53 55 57 56 55 55 55 55 54 54 52 49
59 58 59 59 59 60 60 58 58 58 58 58 56 56 54 54 45 46 52 60 59 60 59 60 60 59 58 58 58 58 58 57 57 58 56 57 56 56 55 53 51 49 48
58 58 58 59 59 60 60 58 58 58 57 57 56 55 54 53 45 47 56 60 60 60 60 61 60 58 49 50 58 57 57 55 50 49 49 48 47 48 52 51 49 48 47
57 57 58 58 59 59 59 58 58 58 60 59 56 54 53 54 45 47 55 60 59 58 58 57 52 55 47 49 57 57 56 56 55 55 54 51 51 51 51 53 49 48 48
57 58 58 59 59 60 59 59 58 58 59 58 57 55 54 54 53 47 50 59 59 58 57 56 55 46 46 47 51 57 55 56 53 55 55 55 54 53 55 53 52 51 49
56 57 58 60 60 60 60 59 58 58 59 57 56 55 55 55 49 46 49 52 53 57 56 56 52 45 45 46 51 45 47 53 56 54 55 55 54 54 55 55 54 53 53
56 58 59 61 61 61 60 59 58 57 57 57 57 56 55 56 55 46 48 47 51 57 56 52 44 44 44 46 45 47 50 57 55 54 53 53 53 54 57 56 55 54 52
57 58 60 60 60 60 61 60 59 58 57 58 57 58 57 55 56 57 54 53 48 51 48 50 49 50 50 52 53 54 58 57 56 54 54 53 54 55 54 53 52 51 50
57 58 59 60 60 60 58 58 60 59 58 58 58 58 56 56 56 54 54 56 56 52 51 55 56 56 55 56 58 59 58 57 57 56 56 55 55 55 54 52 51 49 49
57 58 58 60 60 59 55 51 43 45 43 46 51 56 57 51 45 44 46 46 43 45 53 54 55 56 56 56 57 58 57 56 57 57 55 56 56 56 54 53 50 49 48
56 57 57 57 58 54 53 53 51 48 42 42 46 47 50 49 45 44 44 42 42 47 54 54 55 54 55 56 56 57 57 58 57 57 56 56 56 56 52 55 52 49 48
56 51 57 57 57 54 51 50 49 51 55 55 45 46 44 44 44 43 41 45 52 51 55 55 54 56 56 56 57 56 56 56 56 56 55 56 56 56 55 55 54 52 49
56 55 57 57 56 55 53 50 49 50 55 54 51 47 41 40 40 41 42 56 55 55 55 56 55 54 55 55 56 56 56 55 56 56 56 56 55 54 54 54 53 45 46
54 50 52 56 56 56 54 52 50 50 51 53 55 55 47 48 51 50 50 56 56 55 56 56 56 55 54 54 54 55 55 53 54 55 55 55 55 54 53 53 51 51 48
53 52 47 54 55 55 55 54 52 51 50 51 53 52 45 54 55 55 54 55 57 56 56 56 56 56 56 53 52 53 53 52 52 53 54 54 54 53 52 51 50 49 49
53 52 52 51 53 54 54 54 53 52 51 50 51 51 39 54 55 55 55 56 57 58 57 57 56 56 56 55 56 54 53 52 51 52 53 53 54 53 52 51 50 49 48
55 53 52 52 51 47 50 53 54 53 51 51 50 51 49 53 55 55 56 56 56 57 57 57 57 56 56 54 54 54 54 53 53 53 53 53 52 53 52 51 50 49 48
53 55 53 52 50 50 49 50 51 48 53 51 51 50 50 52 54 55 55 56 56 56 57 57 55 54 55 53 51 51 51 51 51 53 53 53 53 51 53 52 51 51 50
58 55 55 53 54 51 49 49 49 49 50 53 52 50 49 51 52 54 54 54 55 55 55 56 56 55 53 52 51 50 46 39 47 44 50 51 52 53 53 53 52 51 45
57 60 56 55 55 53 51 51 51 49 47 48 50 53 51 49 50 51 51 52 52 53 53 53 53 52 51 50 51 47 40 38 42 38 49 50 49 49 51 52 52 51 47